Home   Weather   Mildura   Past weeks

Flag for Australia Past Weather in Mildura, Victoria, Australia — Yesterday and Last 2 Weeks

Now
69 °F

Mild.


Feels Like: 69 °F
Forecast: 43 / 66 °F
Wind: 10 mph from Northwest

Location: Mildura Airport

Current Time: Sep 26, 2016 at 5:08:02 PM

Latest Report: Sep 26, 2016 at 4:00 PM


Visibility: N/A

Pressure: 29.81 "Hg

Humidity: 30%

Dew Point: 36 °F

Location of MilduraLocation

Past Weather in Mildura — Graph

°F

Mildura Temperature Yesterday

Maximum temperature yesterday: 62 °F (at 5:00 PM)
Minimum temperature yesterday: 42 °F (at 6:00 AM)
Average temperature yesterday: 53 °F

High & Low Weather Summary for the Past Weeks

 TemperatureHumidityPressure
High71 °F (Sep 12, 4:00 PM)100% (Sep 13, 6:00 AM)30.14 "Hg (Sep 13, 6:00 AM)
Low38 °F (Sep 23, 6:00 AM)32% (Sep 17, 2:00 PM)29.71 "Hg (Sep 21, 4:00 AM)
Average54 °F74%29.94 "Hg
* Reported Sep 11 3:00 PM — Sep 26 3:00 PM, Mildura, Weather by CustomWeather, © 2016

Note: Actual official high and low records may vary slightly from our data, if they occured in-between our weather recording intervals... More about our weather records

Advertising

Mildura Weather History for the Previous 24 Hours

Scroll right to see more
 ConditionsComfort  
Time TempWeatherWind HumidityBarometerVisibility
3:00 PM
Mon, Sep 26
69 °FPartly sunny.10 mph32%29.84 "Hg22 mi
2:00 PM69 °FMild.13 mph32%29.87 "HgN/A
1:00 PM67 °FMild.10 mph32%29.89 "HgN/A
12:00 PM65 °FMild.10 mph34%29.92 "HgN/A
11:00 AM64 °FMild.15 mph36%29.94 "HgN/A
10:00 AM62 °FMild.10 mph41%29.96 "HgN/A
9:00 AM60 °FRefreshingly cool.7 mph52%29.96 "HgN/A
8:00 AM53 °FCool.3 mph75%29.96 "HgN/A
7:00 AM47 °FCool.5 mph88%29.95 "HgN/A
6:00 AM44 °FPassing clouds.3 mph91%29.96 "HgN/A
5:00 AM46 °FCool.5 mph88%29.96 "HgN/A
4:00 AM48 °FCool.5 mph84%29.96 "HgN/A
3:00 AM49 °FPassing clouds.6 mph84%29.97 "HgN/A
2:00 AM51 °FCool.3 mph77%29.97 "HgN/A
1:00 AM51 °FCool.2 mph78%29.99 "HgN/A
12:00 AM51 °FPassing clouds.2 mph78%29.99 "HgN/A
11:00 PM
Sun, Sep 25
52 °FCool.7 mph73%30.00 "HgN/A
10:00 PM52 °FCool.3 mph70%30.00 "HgN/A
9:00 PM52 °FPassing clouds.3 mph75%29.99 "HgN/A
8:00 PM54 °FCool.6 mph70%29.98 "HgN/A
7:00 PM55 °FCool.3 mph66%29.95 "HgN/A
6:00 PM58 °FScattered clouds.6 mph55%29.93 "HgN/A
5:00 PM62 °FRefreshingly cool.6 mph44%29.93 "HgN/A
Weather by CustomWeather, © 2016

See weather overviewHow to use our weather pages